TimeCDT,TemperatureF,Dew PointF,Humidity,Sea Level PressureIn,VisibilityMPH,Wind Direction,Wind SpeedMPH,Gust SpeedMPH,PrecipitationIn,Events,Conditions,WindDirDegrees,DateUTC
12:53 AM,70.0,61.0,73,29.83,10.0,SSE,11.5,-,N/A,,Partly Cloudy,160,2013-05-19 05:53:00
1:53 AM,70.0,61.0,73,29.82,10.0,SSE,11.5,-,N/A,,Overcast,150,2013-05-19 06:53:00
2:53 AM,70.0,62.1,76,29.80,10.0,SSE,11.5,-,N/A,,Mostly Cloudy,150,2013-05-19 07:53:00
3:41 AM,68.0,64.4,88,29.79,4.0,SSE,17.3,21.9,0.05,Rain-Thunderstorm,Thunderstorms and Rain,150,2013-05-19 08:41:00
3:53 AM,68.0,64.9,90,29.78,7.0,South,12.7,-,0.06,Rain-Thunderstorm,Light Thunderstorms and Rain,180,2013-05-19 08:53:00
4:32 AM,68.0,64.4,88,29.81,8.0,SSE,10.4,-,0.00,,Scattered Clouds,160,2013-05-19 09:32:00
4:43 AM,68.0,64.4,88,29.80,8.0,SSE,10.4,-,0.00,Thunderstorm,Partly Cloudy,150,2013-05-19 09:43:00
4:53 AM,68.0,64.4,88,29.79,8.0,SSE,12.7,-,N/A,Thunderstorm,Scattered Clouds,160,2013-05-19 09:53:00
5:00 AM,68.0,64.4,88,29.79,8.0,SSE,11.5,-,N/A,,Partly Cloudy,160,2013-05-19 10:00:00
5:53 AM,66.9,64.0,90,29.74,7.0,SE,12.7,-,N/A,,Clear,130,2013-05-19 10:53:00
6:53 AM,66.2,64.4,94,29.80,5.0,SE,11.5,-,N/A,,Clear,140,2013-05-19 11:53:00
7:53 AM,68.0,64.9,90,29.77,6.0,ESE,9.2,-,N/A,,Clear,110,2013-05-19 12:53:00
8:53 AM,72.0,66.9,84,29.76,6.0,SSE,12.7,-,N/A,,Haze,150,2013-05-19 13:53:00
9:53 AM,75.0,69.1,82,29.80,8.0,South,18.4,23.0,N/A,,Scattered Clouds,180,2013-05-19 14:53:00
10:53 AM,78.1,68.0,71,29.77,9.0,South,17.3,-,N/A,,Clear,180,2013-05-19 15:53:00
11:53 AM,79.0,66.9,66,29.68,10.0,SE,15.0,-,N/A,,Clear,140,2013-05-19 16:53:00
12:53 PM,81.0,69.1,67,29.70,9.0,SE,21.9,26.5,N/A,,Clear,130,2013-05-19 17:53:00
1:53 PM,82.4,68.0,62,29.72,10.0,SSE,18.4,25.3,N/A,,Clear,150,2013-05-19 18:53:00
2:53 PM,80.6,66.2,61,29.70,10.0,SE,12.7,-,N/A,,Mostly Cloudy,130,2013-05-19 19:53:00
3:53 PM,82.4,68.0,62,29.68,10.0,SSE,15.0,21.9,N/A,,Partly Cloudy,160,2013-05-19 20:53:00
4:33 PM,82.4,68.0,62,29.66,10.0,SSE,12.7,-,N/A,Thunderstorm,Mostly Cloudy,160,2013-05-19 21:33:00
4:53 PM,82.9,66.9,58,29.61,10.0,SE,13.8,-,N/A,Thunderstorm,Scattered Clouds,130,2013-05-19 21:53:00
5:00 PM,82.4,68.0,62,29.63,10.0,SE,9.2,18.4,N/A,,Partly Cloudy,140,2013-05-19 22:00:00
5:53 PM,81.0,69.1,67,29.60,9.0,SSE,15.0,-,N/A,,Mostly Cloudy,150,2013-05-19 22:53:00
6:53 PM,80.1,66.0,62,29.60,10.0,SSE,11.5,24.2,N/A,,Mostly Cloudy,160,2013-05-19 23:53:00
7:53 PM,75.0,64.0,69,29.59,10.0,SE,13.8,-,N/A,,Clear,130,2013-05-20 00:53:00
8:53 PM,73.9,64.9,73,29.54,10.0,SE,16.1,-,N/A,,Partly Cloudy,130,2013-05-20 01:53:00
9:43 PM,75.2,66.2,73,29.62,10.0,South,18.4,24.2,0.00,Rain-Thunderstorm,Light Rain,190,2013-05-20 02:43:00
9:51 PM,68.0,62.6,83,29.70,1.8,SSW,29.9,42.6,0.15,Rain-Thunderstorm,Heavy Thunderstorms and Rain,210,2013-05-20 02:51:00
9:53 PM,66.0,63.0,90,29.68,1.0,SW,26.5,42.6,0.30,Rain-Thunderstorm,Heavy Thunderstorms and Rain,220,2013-05-20 02:53:00
9:55 PM,64.4,62.6,94,29.71,0.8,SW,20.7,42.6,0.08,Rain-Thunderstorm,Heavy Thunderstorms and Rain,220,2013-05-20 02:55:00
10:03 PM,64.4,62.6,94,29.72,1.0,SW,23.0,33.4,0.25,Rain-Thunderstorm,Heavy Thunderstorms and Rain,220,2013-05-20 03:03:00
10:10 PM,64.4,62.6,94,29.72,2.0,SW,17.3,28.8,0.29,Rain-Thunderstorm,Heavy Thunderstorms and Rain,220,2013-05-20 03:10:00
10:18 PM,64.4,62.6,94,29.74,3.0,WSW,33.4,47.2,0.33,Rain-Thunderstorm,Heavy Thunderstorms and Rain,240,2013-05-20 03:18:00
10:53 PM,63.0,60.1,90,29.72,5.0,WSW,8.1,-,0.45,Rain,Rain,240,2013-05-20 03:53:00
11:53 PM,63.0,60.1,90,29.64,10.0,South,8.1,-,0.04,,Clear,170,2013-05-20 04:53:00